Thedford, NE

6:02 PM CST on February 23, 2017 (GMT -0600)
Thedford

Weather History for KTIF - January, 2012

Change the Weather History Date:

Wednesday, January 11, 2012

  Actual Average (KANW) Record (KANW)
Temperature  
Mean Temperature 28 °F -  
Max Temperature 42 °F 33 °F 60 °F (2006)
Min Temperature 14 °F 12 °F -11 °F (1997)
Degree Days  
Heating Degree Days 37    
Moisture  
Dew Point 14 °F    
Average Humidity 62    
Maximum Humidity 82    
Minimum Humidity 38    
Precipitation  
Precipitation 0.00 in - - ()
Sea Level Pressure  
Sea Level Pressure 29.99 in    
Wind  
Wind Speed 26 mph (NNW)    
Max Wind Speed 33 mph    
Max Gust Speed 45 mph    
Visibility 10 miles    
Events Snow    
Averages and records for this station are not official NWS values.
T = Trace of Precipitation, MM = Missing Value Source: NWS Daily Summary

Daily Weather History Graph

Daily Weather History Graph

Search for Another Location

Airport or City:

Trip Planner

Search our weather history database for the weather conditions in past years. The results will help you decide how hot, cold, wet, or windy it might be!

Date:

Astronomy

Jan. 11, 2012 Rise Set
Actual Time 8:09 AM CST 5:31 PM CST
Civil Twilight 7:38 AM CST 6:02 PM CST
Nautical Twilight 7:03 AM CST 6:36 PM CST
Astronomical Twilight 6:29 AM CST 7:10 PM CST
Moon 8:35 PM CST (1/11) 9:19 AM CST (1/11)
Length of Visible Light 10h 23m
Length of Day
9h 21m
Waning Gibbous, 93% of the Moon is Illuminated
Jan 11
Waning Gibbous
Jan 16
Last Quarter
Jan 23
New
Jan 30
First Quarter
Feb 7
Full

Hourly Weather History & Observations

Time (CST) Temp. Windchill Dew Point Humidity Pressure Visibility Wind Dir Wind Speed Gust Speed Precip Events Conditions
12:15 AM 40.6 °F 31.4 °F 24.3 °F 52% 29.69 in 10.0 mi NW 19.6 mph 25.3 mph N/A   Clear
12:35 AM 42.4 °F 32.6 °F 25.9 °F 52% 29.70 in 10.0 mi NW 25.3 mph 32.2 mph N/A   Clear
12:55 AM 41.9 °F 31.7 °F 27.1 °F 56% 29.71 in 10.0 mi NNW 26.5 mph 34.5 mph N/A   Clear
1:15 AM 41.5 °F 31.4 °F 28.4 °F 60% 29.73 in 10.0 mi NNW 25.3 mph 34.5 mph N/A   Clear
1:35 AM 41.9 °F 33.4 °F 30.0 °F 63% 29.74 in 10.0 mi NNW 18.4 mph 31.1 mph N/A   Mostly Cloudy
1:55 AM 41.0 °F 30.9 °F 31.5 °F 69% 29.74 in 10.0 mi NNW 24.2 mph 38.0 mph N/A   Mostly Cloudy
2:15 AM 40.1 °F 28.1 °F 32.0 °F 73% 29.75 in 10.0 mi NNW 33.4 mph 40.3 mph N/A   Scattered Clouds
2:35 AM 39.2 °F 28.5 °F 32.0 °F 75% 29.77 in 10.0 mi North 24.2 mph 38.0 mph N/A   Mostly Cloudy
2:55 AM 38.3 °F 27.1 °F 32.0 °F 78% 29.78 in 10.0 mi NNW 25.3 mph 35.7 mph N/A   Overcast
3:15 AM 36.7 °F 23.6 °F 30.7 °F 79% 29.78 in 10.0 mi North 32.2 mph 43.7 mph N/A   Overcast
3:35 AM 34.3 °F 20.8 °F 27.5 °F 76% 29.81 in 10.0 mi NNW 29.9 mph 44.9 mph N/A   Overcast
3:55 AM 33.1 °F 19.8 °F 27.9 °F 81% 29.82 in 5.0 mi NNW 26.5 mph 38.0 mph N/A Snow Light Snow
4:15 AM 32.9 °F 19.6 °F 27.0 °F 79% 29.83 in 10.0 mi NNW 26.5 mph 35.7 mph N/A   Overcast
4:35 AM 32.4 °F 19.7 °F 26.2 °F 78% 29.84 in 10.0 mi NNW 23.0 mph 40.3 mph N/A   Overcast
4:55 AM 32.0 °F 17.6 °F 25.3 °F 76% 29.85 in 10.0 mi NNW 29.9 mph 43.7 mph N/A   Overcast
5:15 AM 31.8 °F 18.1 °F 25.7 °F 78% 29.86 in 10.0 mi NNW 26.5 mph 42.6 mph N/A   Overcast
5:35 AM 31.3 °F 18.2 °F 25.5 °F 79% 29.88 in 10.0 mi NNW 23.0 mph 39.1 mph N/A   Overcast
6:15 AM 30.4 °F 15.9 °F 24.3 °F 78% 29.90 in 10.0 mi NNW 27.6 mph 38.0 mph N/A Snow Light Snow
6:35 AM 30.2 °F 16.2 °F 24.3 °F 79% 29.92 in 10.0 mi NNW 25.3 mph 36.8 mph N/A Snow Light Snow
6:55 AM 30.2 °F 15.9 °F 23.9 °F 77% 29.93 in 10.0 mi North 26.5 mph 39.1 mph N/A   Overcast
7:15 AM 30.0 °F 14.9 °F 23.9 °F 78% 29.94 in 5.0 mi North 29.9 mph 39.1 mph N/A Snow Light Snow
7:35 AM 29.7 °F 14.5 °F 23.7 °F 79% 29.96 in 10.0 mi North 29.9 mph 41.4 mph N/A   Overcast
7:55 AM 29.3 °F 14.7 °F 23.5 °F 79% 29.97 in 10.0 mi North 26.5 mph 39.1 mph N/A   Overcast
8:15 AM 29.3 °F 15.6 °F 21.9 °F 74% 29.99 in 10.0 mi North 23.0 mph 35.7 mph N/A   Overcast
8:55 AM 28.9 °F 15.1 °F 23.5 °F 80% 29.99 in 10.0 mi North 23.0 mph 33.4 mph N/A   Overcast
9:15 AM 29.3 °F 15.6 °F 21.9 °F 74% 30.00 in 10.0 mi North 23.0 mph 34.5 mph N/A   Overcast
9:35 AM 28.8 °F 14.9 °F 22.1 °F 76% 30.01 in 10.0 mi NNW 23.0 mph 31.1 mph N/A   Overcast
9:55 AM 27.0 °F 11.0 °F 22.1 °F 82% 30.03 in 7.0 mi NNW 28.8 mph 39.1 mph N/A   Overcast
10:15 AM 25.7 °F 8.3 °F 20.1 °F 79% 30.04 in 10.0 mi NNW 33.4 mph 44.9 mph N/A   Overcast
10:35 AM 25.7 °F 8.3 °F 18.5 °F 74% 30.06 in 10.0 mi NNW 33.4 mph 42.6 mph N/A   Overcast
10:55 AM 25.3 °F 9.4 °F 17.6 °F 72% 30.06 in 10.0 mi NNW 26.5 mph 43.7 mph N/A   Overcast
11:15 AM 25.7 °F 10.5 °F 17.4 °F 71% 30.06 in 10.0 mi North 24.2 mph 36.8 mph N/A   Overcast
11:35 AM 24.4 °F 8.5 °F 17.4 °F 75% 30.06 in 5.0 mi NNW 25.3 mph 39.1 mph N/A Snow Light Snow
11:55 AM 23.9 °F 6.6 °F 16.7 °F 74% 30.07 in 5.0 mi NNW 29.9 mph 38.0 mph N/A   Haze
12:35 PM 22.8 °F 5.4 °F 10.9 °F 60% 30.07 in 10.0 mi NNW 28.8 mph 44.9 mph N/A   Overcast
12:55 PM 23.4 °F 5.1 °F 10.4 °F 58% 30.07 in 10.0 mi NNW 33.4 mph 43.7 mph N/A   Overcast
1:15 PM 22.6 °F 4.4 °F 10.2 °F 59% 30.07 in 10.0 mi NNW 32.2 mph 40.3 mph N/A   Overcast
1:35 PM 23.0 °F 6.6 °F 10.2 °F 58% 30.07 in 10.0 mi NNW 25.3 mph 39.1 mph N/A Snow Light Snow
1:55 PM 22.8 °F 4.9 °F 10.9 °F 60% 30.07 in 10.0 mi NNW 31.1 mph 40.3 mph N/A   Overcast
2:15 PM 23.9 °F 7.2 °F 7.7 °F 50% 30.07 in 10.0 mi NW 27.6 mph 39.1 mph N/A   Overcast
2:35 PM 23.5 °F 6.7 °F 7.7 °F 51% 30.07 in 10.0 mi NNW 27.6 mph 40.3 mph N/A   Overcast
2:55 PM 23.9 °F - 7.3 °F 49% - - North - - N/A   Unknown
3:15 PM 23.4 °F 5.4 °F 6.4 °F 48% 30.07 in 10.0 mi NNW 32.2 mph 40.3 mph N/A   Mostly Cloudy
3:35 PM 23.0 °F 6.3 °F 3.6 °F 43% 30.08 in 10.0 mi NNW 26.5 mph 36.8 mph N/A   Scattered Clouds
3:55 PM 21.4 °F 3.8 °F -0.8 °F 38% 30.10 in 10.0 mi NNW 27.6 mph 39.1 mph N/A   Mostly Cloudy
4:15 PM 20.3 °F 3.3 °F 0.5 °F 42% 30.10 in 10.0 mi NNW 24.2 mph 33.4 mph N/A   Mostly Cloudy
4:35 PM 19.4 °F 3.6 °F -0.6 °F 42% 30.11 in 10.0 mi NNW 19.6 mph 29.9 mph N/A   Mostly Cloudy
4:55 PM 18.5 °F -0.7 °F -0.6 °F 43% 30.11 in 10.0 mi NNW 29.9 mph 38.0 mph N/A   Scattered Clouds
5:15 PM 17.6 °F 0.5 °F -0.4 °F 45% 30.11 in 10.0 mi NNW 21.9 mph 36.8 mph N/A   Clear
5:35 PM 16.7 °F 0.1 °F 0.3 °F 49% 30.12 in 10.0 mi NNW 19.6 mph 27.6 mph N/A   Clear
6:15 PM 15.6 °F -1.8 °F 0.7 °F 52% 30.12 in 10.0 mi NNW 20.7 mph 27.6 mph N/A   Clear
6:35 PM 15.6 °F -2.6 °F 0.3 °F 51% 30.11 in 10.0 mi NNW 23.0 mph 32.2 mph N/A   Scattered Clouds
6:55 PM 15.8 °F -2.3 °F -0.4 °F 49% 30.11 in 10.0 mi NNW 23.0 mph 28.8 mph N/A   Mostly Cloudy
7:15 PM 15.4 °F -2.4 °F -1.3 °F 48% 30.11 in 10.0 mi NNW 21.9 mph 29.9 mph N/A   Overcast
7:35 PM 15.6 °F -2.9 °F -2.2 °F 45% 30.11 in 10.0 mi NNW 24.2 mph 34.5 mph N/A   Overcast
7:55 PM 15.4 °F -3.5 °F -3.3 °F 44% 30.11 in 10.0 mi NNW 25.3 mph 34.5 mph N/A   Overcast
8:15 PM 14.7 °F -5.2 °F -3.1 °F 45% 30.10 in 10.0 mi NNW 27.6 mph 36.8 mph N/A   Mostly Cloudy
8:35 PM 14.0 °F -5.1 °F -3.1 °F 47% 30.09 in 10.0 mi NNW 24.2 mph 32.2 mph N/A   Scattered Clouds
8:55 PM 14.9 °F -4.6 °F -2.2 °F 47% 30.08 in 10.0 mi NNW 26.5 mph 36.8 mph N/A   Mostly Cloudy
9:15 PM 15.4 °F -4.9 °F -1.3 °F 48% 30.08 in 10.0 mi NNW 29.9 mph 39.1 mph N/A   Overcast
9:35 PM 14.9 °F -5.6 °F -1.3 °F 49% 30.07 in 10.0 mi NNW 29.9 mph 41.4 mph N/A   Overcast
9:55 PM 15.1 °F -4.7 °F -1.1 °F 49% 30.07 in 10.0 mi NW 27.6 mph 40.3 mph N/A   Overcast
10:15 PM 14.7 °F -5.5 °F -1.3 °F 49% 30.07 in 10.0 mi NNW 28.8 mph 40.3 mph N/A   Overcast
10:35 PM 14.9 °F -4.3 °F -0.0 °F 52% 30.07 in 10.0 mi NW 25.3 mph 41.4 mph N/A   Overcast
10:55 PM 14.7 °F -6.1 °F 1.0 °F 55% 30.07 in 10.0 mi NNW 31.1 mph 40.3 mph N/A   Overcast
11:15 PM 14.7 °F -5.5 °F -0.4 °F 51% 30.08 in 10.0 mi NNW 28.8 mph 34.5 mph N/A   Overcast
11:35 PM 14.0 °F -6.2 °F -1.3 °F 51% 30.07 in 10.0 mi NNW 27.6 mph 39.1 mph N/A   Overcast
11:55 PM 13.6 °F -5.9 °F -0.4 °F 54% 30.07 in 10.0 mi NNW 25.3 mph 36.8 mph N/A   Overcast